This is the latest recevied weather packets stored in our database for station/object OE3MHU-13. If no packets are shown the sender has not sent any weather packets the latest 10 day(s).
| Time | Temp. | Humidity | Pressure | Rain* | Wind** | Luminosity | Snow |
|---|---|---|---|---|---|---|---|
| 1787628843 | 16.11° C | 68% | 1015.6 hPa | 0 mm | - | - | - |
| 1787628537 | 16.11° C | 67% | 1015.6 hPa | 0 mm | - | - | - |
| 1787628231 | 16.11° C | 67% | 1015.6 hPa | 0 mm | - | - | - |
| 1787627926 | 16.67° C | 67% | 1015.7 hPa | 0 mm | - | - | - |
| 1787627619 | 16.67° C | 66% | 1015.7 hPa | 0 mm | - | - | - |
| 1787627319 | 16.67° C | 66% | 1015.9 hPa | 0 mm | - | - | - |
| 1787627017 | 16.67° C | 66% | 1015.8 hPa | 0 mm | - | - | - |
| 1787626716 | 16.67° C | 66% | 1016.1 hPa | 0 mm | - | - | - |
| 1787626417 | 16.67° C | 66% | 1016.2 hPa | 0 mm | - | - | - |
| 1787626117 | 16.67° C | 67% | 1016.2 hPa | 0 mm | - | - | - |
| 1787625817 | 16.11° C | 69% | 1016.3 hPa | 0 mm | - | - | - |
| 1787625517 | 15.56° C | 69% | 1016.2 hPa | 0 mm | - | - | - |
| 1787625216 | 15.56° C | 69% | 1016.4 hPa | 0 mm | - | - | - |
| 1787624917 | 16.11° C | 69% | 1016.3 hPa | 0 mm | - | - | - |
| 1787624618 | 16.11° C | 69% | 1016.4 hPa | 0 mm | - | - | - |
| 1787624317 | 16.11° C | 68% | 1016.2 hPa | 0 mm | - | - | - |
| 1787624017 | 16.11° C | 67% | 1016.1 hPa | 0 mm | - | - | - |
| 1787623715 | 16.11° C | 67% | 1016.3 hPa | 0 mm | - | - | - |
| 1787623413 | 16.11° C | 68% | 1016.4 hPa | 0 mm | - | - | - |
| 1787623111 | 16.11° C | 68% | 1016.5 hPa | 0 mm | - | - | - |
| 1787622814 | 16.11° C | 67% | 1016.7 hPa | 0 mm | - | - | - |
| 1787622511 | 16.67° C | 65% | 1016.8 hPa | 0 mm | - | - | - |
| 1787622204 | 17.22° C | 63% | 1016.9 hPa | 0 mm | - | - | - |
| 1787621901 | 17.22° C | 62% | 1017 hPa | 0 mm | - | - | - |
| 1787621601 | 17.22° C | 62% | 1017.1 hPa | 0 mm | - | - | - |
* Rain latest hour (hover to see other rain measurements)
** Current wind speed in m/s (hover to see current wind gust speed)